Wind_Speed
36 35 35 34 31 29 31 37 43 44 42 43 44 46 47 46 45 43 42 41 40 40 39 37 34 33 33 32 31 30 30 29 29 27 26 25 25 26 27 28 28 28 29 30 32 33 33 34 33 33 34 34 35 35 35 36 37 38 39 40 40 40 40 39 38 38 38 38 38 38 38 38 39 39 40 40 41 42 42 43 43 44 44 44 44 45 45
36 37 36 34 31 30 31 36 43 47 46 45 45 45 47 47 46 45 43 42 42 41 40 36 33 33 33 32 31 30 29 28 27 26 25 24 23 24 25 26 27 28 29 31 32 33 33 33 33 34 35 36 36 36 37 38 38 39 40 40 40 40 39 39 38 38 38 38 38 38 38 38 39 39 40 40 41 42 42 43 43 44 45 45 46 46 47
36 37 38 36 33 31 31 34 40 46 48 47 46 46 45 45 44 44 43 43 42 41 38 36 34 34 34 34 33 31 28 26 25 25 24 24 23 23 24 26 27 28 29 31 32 33 33 33 34 35 36 37 37 38 38 38 39 40 40 40 40 39 39 38 38 38 38 38 37 38 38 38 38 39 39 40 41 42 43 43 44 45 46 47 47 48 49
35 36 38 36 34 32 32 34 38 43 45 46 47 47 45 43 42 42 42 41 40 38 36 35 34 34 36 35 34 32 30 27 25 24 24 23 24 24 25 27 28 28 29 30 32 33 33 34 35 36 37 37 37 37 38 38 39 40 40 39 39 38 38 38 37 37 37 38 38 38 38 38 38 39 39 40 41 42 43 44 45 46 47 47 48 49 50
37 37 38 37 35 33 33 33 36 40 45 46 46 47 46 43 42 42 42 40 38 37 37 36 34 34 35 34 32 32 30 28 26 23 22 23 25 26 27 28 28 29 29 30 32 33 34 35 36 36 36 36 36 37 37 38 38 38 38 38 38 38 37 37 37 37 37 37 38 38 38 39 39 40 41 42 43 44 45 46 47 47 48 49 50 51 51
41 41 40 38 37 35 35 34 35 39 45 48 46 46 45 43 42 43 43 42 40 38 36 36 36 35 35 33 32 31 30 29 27 25 22 24 27 28 28 28 29 29 30 30 31 32 33 34 35 35 35 35 36 37 37 37 36 36 36 36 37 37 37 37 37 37 37 38 38 39 39 40 41 41 42 43 44 44 45 46 47 48 49 50 50 51 52
44 44 42 41 40 38 36 36 36 38 44 48 48 47 44 42 42 42 43 44 43 39 36 36 37 37 36 34 32 30 29 29 28 26 24 25 26 27 27 28 28 28 29 29 29 31 31 32 33 33 34 35 35 35 35 35 35 35 35 36 36 36 36 37 38 38 38 38 38 39 39 40 41 41 42 43 44 45 46 47 48 49 50 51 52 53 54
45 45 45 43 41 39 38 37 37 37 39 43 48 50 49 46 44 43 43 44 45 43 40 39 39 39 38 35 32 31 30 29 28 26 25 24 25 25 27 28 28 27 27 28 28 29 30 31 31 32 32 33 33 33 33 33 34 34 34 35 35 36 37 38 38 38 38 37 37 38 38 39 40 41 42 43 44 45 47 48 49 50 51 52 53 54 56
47 47 46 44 42 41 39 38 38 38 37 38 41 45 48 47 46 43 42 42 45 45 44 43 43 42 39 35 33 32 30 30 28 27 26 26 25 25 26 26 26 26 26 27 27 28 29 29 29 30 30 31 31 31 32 32 33 33 34 35 36 37 37 37 37 37 37 36 37 37 38 39 40 42 42 43 44 45 46 48 49 50 52 53 54 55 56
47 46 46 45 44 42 39 39 40 40 38 36 35 36 39 40 39 39 39 40 42 43 44 45 44 41 36 34 33 32 31 29 28 27 27 27 26 25 24 24 24 24 25 25 26 27 28 28 28 29 30 30 30 31 31 31 32 33 35 36 36 36 36 36 35 35 36 36 36 37 38 39 40 41 41 42 43 44 46 47 48 50 51 52 53 54 55
44 44 44 45 45 42 39 40 42 41 38 36 35 35 34 33 33 35 37 39 40 39 39 41 40 37 35 33 32 31 28 26 25 25 25 25 24 22 22 22 23 24 25 26 26 27 27 27 28 29 29 29 30 30 31 31 32 34 35 35 35 34 34 34 34 34 35 35 36 37 37 38 38 39 40 41 42 44 45 46 48 49 50 51 52 52 53
41 40 41 42 43 42 40 39 40 41 40 39 38 36 33 31 31 32 33 35 36 35 35 36 36 35 34 33 32 30 27 25 23 22 22 22 21 21 21 22 23 24 25 25 26 26 27 27 28 29 29 29 29 30 31 32 33 34 34 33 32 32 32 32 33 33 34 34 35 35 35 36 37 38 39 40 42 43 44 45 46 47 48 49 50 51 52
36 37 37 39 40 40 39 39 40 41 41 42 40 35 30 28 29 29 29 30 32 33 33 34 35 34 33 32 32 30 27 24 22 21 21 21 20 20 21 22 23 24 25 25 25 26 26 26 27 28 29 29 30 31 32 32 32 32 31 30 30 30 31 31 32 32 32 32 32 33 34 35 36 38 39 40 41 42 43 44 45 46 47 48 50 51 52
30 32 34 36 37 36 36 37 38 38 38 36 33 30 29 29 28 28 28 28 30 31 31 31 32 32 31 30 29 25 23 22 21 21 21 20 20 21 22 23 24 25 25 26 26 26 26 26 26 27 28 28 29 30 30 29 29 28 28 28 29 29 30 30 30 30 30 30 31 32 34 35 36 37 38 39 40 41 42 43 44 45 46 47 48 49 50
27 28 29 31 31 30 29 30 31 33 33 30 27 26 28 30 30 29 28 27 28 28 26 24 25 26 25 25 25 23 22 22 21 21 20 20 20 21 22 23 24 25 25 26 26 26 26 26 27 27 27 27 27 26 26 26 26 26 26 27 28 28 28 28 28 28 29 30 32 33 34 35 36 37 37 38 39 39 40 41 42 43 44 45 46 46 48
23 23 23 24 26 26 25 24 24 25 26 26 25 26 26 27 27 26 25 25 25 24 23 22 23 23 23 23 23 22 22 22 21 21 20 20 21 22 22 23 23 23 24 24 24 25 25 25 25 25 24 24 23 23 23 24 24 25 26 26 26 26 26 26 27 28 29 31 32 33 34 34 35 35 36 37 37 38 39 40 41 42 42 43 43 44 46
19 18 17 19 23 24 24 22 21 20 20 22 24 25 25 24 25 24 23 23 22 22 22 24 24 24 24 24 24 23 24 24 23 22 21 21 22 22 22 23 23 23 23 22 22 23 23 22 22 21 21 21 21 22 22 23 24 24 24 24 24 24 25 26 27 28 30 31 32 32 33 33 33 34 35 35 36 37 38 39 40 40 41 41 42 43 45
20 19 19 20 22 23 23 23 21 19 18 20 23 25 25 25 25 24 23 23 22 23 24 24 24 24 24 25 26 26 25 24 23 23 23 23 23 22 22 22 22 21 21 20 20 20 19 19 19 19 19 20 20 21 22 22 22 22 22 22 22 24 25 26 27 28 29 30 31 31 31 31 32 32 33 34 35 36 37 38 39 39 40 40 41 42 44
20 19 19 20 21 22 23 23 22 20 20 20 22 24 25 26 26 25 25 25 25 25 26 25 25 25 25 25 26 26 25 23 24 24 23 23 22 22 21 21 20 20 19 18 18 18 17 17 17 18 18 19 20 21 21 20 20 20 20 21 23 24 25 26 27 28 29 29 29 29 29 29 30 31 32 33 35 36 37 38 38 39 39 40 41 42 44
20 19 19 19 20 20 20 21 21 21 21 22 22 24 26 27 27 27 27 27 27 26 26 25 25 25 24 24 24 25 24 24 24 24 23 22 22 21 20 20 19 18 17 17 16 16 16 16 17 18 19 19 19 19 19 19 19 20 21 22 23 24 25 26 27 27 28 28 28 27 27 28 28 30 31 33 34 36 36 37 38 39 40 40 41 42 44
18 19 18 18 18 18 18 17 18 19 20 21 22 24 26 27 29 29 29 29 27 26 26 25 24 24 24 24 24 24 24 24 24 23 22 21 20 20 19 19 17 16 16 16 16 16 16 17 17 18 18 18 18 17 17 18 19 20 21 23 24 24 25 26 26 27 27 26 26 26 25 26 27 29 31 33 34 35 36 38 39 39 40 41 42 43 45
17 19 19 18 17 17 18 18 17 18 19 20 21 23 24 26 28 28 28 27 26 26 25 24 24 24 24 23 23 23 24 23 22 21 20 20 19 18 17 16 15 15 15 15 16 16 17 17 17 17 17 16 16 16 17 18 19 21 22 23 24 24 25 25 25 26 25 25 25 24 24 25 26 29 31 32 34 36 37 38 39 40 40 41 42 43 46
16 20 21 19 17 16 18 19 19 18 19 19 20 22 23 24 25 25 25 25 25 25 25 25 24 23 22 22 22 23 23 22 20 19 18 18 17 16 15 15 15 15 16 16 16 16 16 16 16 15 15 15 15 16 17 18 19 20 21 22 23 24 24 25 25 25 24 24 23 23 23 24 26 28 30 32 34 36 37 38 40 40 41 41 42 43 46
16 18 20 21 20 19 19 20 20 20 19 19 19 20 21 22 23 23 24 25 25 25 24 24 22 21 21 22 22 22 21 20 18 18 18 17 16 15 15 15 16 16 16 16 16 16 15 15 14 14 14 14 15 16 17 18 19 20 21 21 22 23 23 24 24 23 23 23 22 22 22 24 25 28 30 32 34 35 37 38 39 41 41 41 42 44 46
16 18 19 21 22 22 21 21 21 21 20 20 20 20 21 22 22 23 23 23 23 23 23 21 20 21 21 21 21 20 19 18 18 18 17 16 15 16 16 16 16 16 16 15 15 14 14 13 13 13 13 14 15 16 17 18 18 19 20 21 21 22 22 22 22 22 21 21 21 21 21 23 25 27 30 31 33 34 36 38 39 40 41 42 42 43 45
18 19 20 21 21 22 22 22 22 21 21 21 22 23 23 23 24 24 24 24 24 23 21 20 21 22 22 21 20 19 18 17 17 17 16 16 16 17 16 16 16 15 15 14 14 13 13 12 12 13 13 14 15 16 16 17 18 18 19 20 21 21 21 21 21 20 19 19 19 19 21 22 25 27 29 30 32 33 35 37 38 39 41 42 42 43 45
19 19 20 20 20 21 22 21 21 22 23 23 24 24 25 25 25 25 24 24 23 22 21 21 22 22 21 20 19 18 17 17 17 17 17 17 17 17 16 16 15 15 14 14 13 12 12 12 12 12 13 13 14 14 15 16 17 18 19 20 20 20 20 20 19 19 18 17 17 19 20 22 25 27 28 29 31 32 34 36 37 39 40 41 42 42 44
20 20 19 19 20 20 21 21 21 22 23 24 25 25 26 26 25 24 22 21 21 21 22 23 22 20 19 18 18 17 17 17 17 17 17 17 17 16 16 15 15 14 14 13 13 12 11 11 11 11 12 12 13 13 14 15 16 17 18 18 19 19 19 18 18 17 17 17 17 18 20 22 24 26 27 29 30 32 33 35 37 38 40 41 41 41 43
20 20 20 20 21 21 21 21 22 22 23 23 24 24 24 24 23 22 21 21 21 22 22 21 20 19 19 18 18 17 17 17 17 17 17 17 16 16 15 15 15 15 14 13 12 11 11 10 10 10 11 11 12 13 13 15 16 16 17 17 17 17 17 17 17 16 16 17 17 18 20 22 25 26 27 28 30 31 33 35 36 37 38 40 40 40 41
21 21 21 22 22 22 23 23 23 23 23 23 23 22 22 22 22 21 21 22 22 22 21 20 19 19 18 18 17 18 18 18 17 17 16 16 16 15 15 16 16 15 14 13 12 11 10 9 9 10 10 10 11 12 13 14 15 16 17 17 17 17 17 17 16 16 16 16 17 18 20 23 25 27 28 29 31 32 34 35 36 36 37 39 39 39 40
21 21 22 22 23 23 23 24 24 24 23 22 22 21 20 20 20 21 21 22 21 20 20 19 19 18 18 17 18 18 18 18 18 17 16 16 16 16 17 17 16 15 14 12 11 10 9 8 8 8 9 9 10 12 13 14 15 16 16 16 16 17 17 17 16 16 16 17 18 19 22 24 26 28 29 30 31 33 34 34 35 36 37 38 39 39 39
20 21 22 22 22 22 23 23 24 24 23 22 21 19 19 20 20 21 21 21 20 19 19 19 18 18 18 18 18 18 18 17 17 16 16 16 17 17 18 17 16 15 13 12 10 9 8 7 7 7 8 9 10 11 13 14 15 15 15 16 16 16 17 16 16 16 17 17 18 20 22 24 25 27 28 29 30 32 33 34 35 35 36 37 39 39 38
17 18 20 21 22 22 22 22 22 23 22 21 20 19 20 21 21 21 21 20 19 19 19 19 18 19 19 19 18 18 17 17 16 17 17 17 18 18 18 18 16 14 13 11 9 8 7 7 6 7 8 9 10 11 13 14 15 15 15 15 16 16 16 16 17 17 18 18 19 21 23 24 25 26 28 29 30 31 32 33 34 35 35 36 38 38 38
12 14 16 19 21 22 23 23 22 21 21 21 20 21 21 21 21 20 20 20 20 19 19 19 19 19 19 19 18 17 17 17 17 17 17 18 19 19 18 17 15 14 12 10 8 7 6 6 6 6 7 9 10 11 13 14 15 15 15 15 16 16 17 17 17 18 18 19 20 21 23 25 26 27 27 28 29 31 32 33 34 34 35 36 37 38 38
10 10 12 14 16 18 20 21 22 21 21 20 20 21 21 21 20 20 20 20 20 19 19 20 20 20 19 18 18 17 18 18 18 18 19 19 19 19 18 17 15 13 12 10 8 7 6 6 6 6 7 8 10 11 12 14 15 15 15 15 15 16 17 17 17 18 19 20 21 23 24 26 27 27 27 28 29 31 32 33 33 34 35 35 36 37 38
8 9 9 10 12 13 16 18 20 21 21 21 21 21 21 20 20 20 20 20 20 19 19 20 19 19 18 18 19 19 19 19 19 19 19 19 19 19 18 17 15 13 12 10 9 8 7 7 6 6 7 8 10 11 13 14 14 15 15 15 15 16 17 17 18 18 19 20 22 23 25 26 27 27 28 28 29 30 31 32 33 34 35 35 35 36 37
6 6 7 8 9 11 12 15 17 18 20 21 21 20 20 20 20 20 20 19 19 19 19 19 19 19 19 19 20 20 19 19 19 19 19 19 19 19 18 17 15 14 12 11 10 9 8 7 7 7 7 8 10 11 13 14 14 14 15 16 16 17 17 18 19 20 21 22 23 24 25 27 28 28 28 28 29 29 30 31 32 33 34 34 35 35 36
3 4 5 7 8 9 10 12 14 16 18 19 20 19 18 19 19 18 18 18 18 18 18 19 19 19 20 20 20 20 19 19 18 19 19 19 19 19 18 17 16 15 14 12 11 9 9 9 9 9 9 9 9 11 13 15 15 15 16 17 17 18 18 19 20 21 22 23 24 25 26 27 28 29 29 29 29 29 30 31 32 32 33 34 34 34 34
4 4 4 5 7 8 9 10 12 13 15 17 17 17 16 17 17 17 17 17 18 18 18 19 19 19 19 19 19 19 19 18 18 19 19 20 20 19 19 18 18 17 15 14 12 11 10 10 10 11 12 11 11 11 14 15 15 15 16 18 19 19 20 21 22 23 24 25 26 26 27 28 29 30 30 30 30 30 31 31 32 32 33 33 33 33 33
5 5 6 6 7 9 10 11 12 13 14 15 16 16 16 16 16 16 17 17 18 18 18 18 18 19 18 19 19 20 20 19 19 19 20 20 20 19 19 19 19 19 17 15 14 12 12 12 12 12 14 14 13 13 15 16 16 16 17 19 20 21 21 22 23 24 25 26 27 28 28 29 30 31 32 32 32 31 31 31 32 32 32 33 33 33 33
4 5 5 5 7 9 11 12 13 13 13 14 14 15 15 16 16 17 18 18 18 18 18 18 19 19 19 19 21 21 20 19 19 19 20 20 20 20 20 20 21 20 19 17 16 15 14 14 14 14 15 16 16 16 16 17 18 18 19 20 21 22 22 23 24 25 25 27 28 29 29 29 30 31 32 33 33 33 32 32 32 32 32 32 33 33 33
3 4 4 5 6 8 10 12 13 14 15 15 14 13 14 16 17 18 18 18 18 19 19 19 19 20 20 21 22 21 20 19 19 19 20 21 22 22 21 21 21 21 20 19 18 17 16 15 15 16 17 17 17 18 18 19 19 20 20 21 22 22 23 24 25 25 26 27 28 29 30 30 30 31 32 33 33 33 33 33 32 32 32 32 32 32 33
3 4 5 6 7 8 9 11 13 14 14 14 14 14 14 15 16 17 17 18 19 19 20 20 20 21 21 21 21 20 20 19 19 20 21 22 23 22 22 21 21 22 22 21 21 20 18 17 17 18 18 18 19 20 20 20 21 21 22 22 23 23 24 25 25 26 27 28 28 29 30 31 31 32 32 33 33 33 33 33 33 32 32 32 31 32 32
4 4 5 6 7 8 9 10 11 12 12 13 13 14 15 16 16 16 17 18 19 20 20 21 21 21 20 20 20 20 20 21 21 22 23 23 23 23 22 22 22 23 23 24 23 21 19 18 19 20 20 20 20 21 21 22 22 23 23 23 24 24 25 25 26 27 28 29 29 29 30 31 32 32 33 33 34 34 34 33 33 33 32 32 31 31 32
4 4 5 5 6 7 7 8 9 10 11 12 12 13 14 15 16 17 18 19 19 20 20 20 20 20 20 21 21 21 21 21 21 21 22 22 23 23 23 23 23 24 24 24 24 23 21 20 21 21 21 22 22 22 23 23 24 24 25 25 25 26 26 27 27 28 29 30 30 30 30 31 31 32 33 34 34 34 34 34 34 34 33 32 32 31 32
5 5 5 5 6 6 6 6 7 8 9 9 10 11 13 14 15 16 17 18 19 19 20 20 20 21 21 21 21 21 21 20 20 20 21 22 23 24 24 23 23 24 24 24 24 24 23 23 22 22 23 23 24 24 25 25 25 25 26 27 27 27 28 28 28 29 30 31 31 31 31 31 31 32 33 34 34 35 35 35 35 35 35 34 33 32 32
5 5 6 6 6 5 6 6 6 7 7 8 9 10 12 13 14 14 15 16 17 18 19 19 20 20 20 21 20 20 19 20 20 21 21 22 24 24 24 23 23 24 24 25 25 26 25 25 24 24 24 25 26 26 26 27 27 27 27 28 28 29 29 29 29 30 31 32 32 33 32 32 32 33 33 34 35 35 35 36 36 36 36 35 35 34 33
6 6 6 6 6 6 7 7 8 8 9 9 9 10 11 12 12 13 14 15 16 16 17 18 18 18 19 19 19 19 19 20 20 21 22 23 24 23 23 23 23 23 24 25 26 26 26 26 26 26 27 27 27 28 28 28 28 28 28 29 29 30 30 30 31 32 32 33 33 34 34 34 34 34 34 35 35 35 36 36 36 36 36 36 36 35 34
7 7 7 6 7 8 8 9 9 9 10 10 10 10 10 11 11 12 12 13 14 15 15 16 17 18 18 18 18 19 19 20 21 22 23 23 23 22 22 22 23 24 25 26 26 27 27 27 28 28 28 29 29 29 29 29 29 29 29 30 30 30 31 31 32 33 34 34 35 35 35 35 35 35 36 36 36 36 36 36 37 37 37 36 36 36 36
8 8 8 8 9 9 9 9 9 9 9 9 9 10 10 11 12 12 12 13 14 14 15 15 16 17 18 18 18 18 19 19 20 21 21 22 22 22 23 23 24 25 26 26 27 27 28 28 29 29 30 30 30 31 31 31 30 30 30 30 31 31 32 32 33 34 35 35 35 36 36 36 36 36 37 37 37 36 36 37 37 37 36 36 36 37 37
11 11 11 10 10 9 9 9 8 8 9 9 9 9 10 11 12 13 13 13 14 15 15 16 16 16 17 17 18 18 18 19 20 21 21 21 22 23 23 23 24 25 26 26 27 28 29 30 30 31 31 32 32 32 32 31 31 31 31 31 32 32 33 34 34 35 36 36 36 36 36 36 37 37 37 37 37 37 37 37 37 37 37 37 37 37 37
13 13 12 12 11 10 9 9 9 9 9 10 10 10 11 12 13 13 13 14 15 16 16 17 17 17 17 17 18 18 18 18 19 21 22 22 23 23 23 24 25 26 27 27 29 30 31 32 32 32 32 33 33 32 32 32 32 32 32 32 33 34 34 35 36 36 37 37 37 37 37 37 37 38 38 38 38 38 38 38 38 38 38 38 37 37 37
Wind_Direction
208 210 216 215 205 204 207 205 204 205 205 206 208 208 210 215 220 224 229 234 239 243 246 249 249 246 243 242 241 244 248 250 250 251 253 254 255 254 251 248 247 246 244 241 240 241 242 244 247 251 255 259 262 265 268 271 273 276 279 282 285 288 289 290 290 290 290 289 288 287 287 287 287 288 288 288 289 289 289 289 289 290 290 290 290 290 290
204 206 213 216 208 204 207 207 204 204 205 208 211 212 212 215 220 225 229 233 238 241 243 245 245 243 242 242 243 246 250 249 248 249 249 251 255 257 254 250 246 244 242 240 239 240 241 244 248 252 256 260 263 265 268 270 273 277 280 284 286 288 288 289 290 290 289 288 288 288 288 288 289 290 290 290 291 291 291 291 291 291 291 291 291 290 290
201 205 212 216 212 204 205 207 206 205 207 210 212 215 216 217 220 224 228 230 232 234 235 237 240 243 245 246 247 249 250 250 249 250 250 253 258 260 258 252 246 243 242 241 240 240 242 245 249 253 256 259 262 266 269 272 275 279 282 284 285 287 288 290 291 291 290 290 289 289 289 290 290 291 291 291 292 292 292 292 292 292 292 291 291 291 290
201 205 209 214 214 207 204 206 206 206 208 210 213 216 218 220 221 225 229 229 229 230 231 233 237 242 246 249 251 251 251 253 255 255 255 257 259 259 257 252 247 243 242 242 242 242 243 246 250 253 256 259 263 266 270 274 277 280 282 283 285 288 290 291 291 291 291 291 291 291 291 291 291 292 292 292 292 293 293 293 292 292 292 292 291 291 291
205 208 210 213 216 213 209 207 206 207 208 210 213 218 221 223 224 224 226 228 228 229 232 234 237 241 246 250 253 254 254 257 258 258 257 255 254 254 253 251 248 245 244 244 244 245 246 248 251 254 257 261 265 268 272 275 277 279 282 285 288 290 291 291 291 291 292 292 292 293 293 293 293 294 294 294 294 294 294 294 294 294 293 293 292 292 292
208 212 213 215 217 218 217 214 208 206 208 211 214 219 224 227 227 225 224 226 228 230 233 236 238 241 245 251 255 257 258 258 257 258 256 251 251 252 250 249 248 246 244 244 245 246 249 251 254 257 261 264 267 270 272 275 277 280 284 286 288 289 290 290 291 292 292 293 294 294 295 295 295 295 295 295 296 296 296 296 296 295 295 295 294 294 293
210 214 215 216 217 219 221 220 212 206 206 210 215 219 223 226 227 227 226 226 228 231 235 238 239 241 244 249 254 258 261 259 257 257 255 250 248 248 247 246 246 245 244 244 246 248 251 254 257 260 263 266 268 270 273 276 279 283 285 286 287 288 290 291 292 293 294 295 296 297 297 298 298 298 298 298 298 298 298 297 297 297 296 296 295 294 294
210 214 215 214 215 217 219 219 217 211 208 210 214 218 221 225 227 228 229 229 230 233 236 239 240 242 246 250 254 258 261 260 257 256 255 249 244 242 242 243 244 244 245 246 248 251 253 255 258 261 263 266 268 272 275 279 281 283 284 285 287 290 291 292 293 295 296 297 298 299 300 300 300 300 300 300 299 299 299 298 298 297 297 296 296 295 294
211 213 215 214 214 215 216 217 218 217 215 214 215 218 221 225 228 230 231 231 232 234 237 240 241 243 247 252 255 259 262 261 257 254 253 248 241 238 238 240 242 244 246 248 250 252 254 257 259 262 264 267 271 274 277 279 281 282 284 287 289 291 292 293 294 296 298 300 301 301 301 301 300 300 300 299 299 299 299 299 299 299 298 298 297 296 295
215 216 216 216 216 215 215 216 217 217 217 217 218 221 223 227 230 233 235 235 236 237 239 240 241 245 250 255 258 260 262 258 252 248 246 243 239 238 239 241 243 246 248 251 253 255 257 259 261 264 267 270 273 275 277 279 280 283 286 288 290 291 293 294 295 297 299 300 300 300 300 300 300 300 300 301 301 301 301 301 301 301 300 300 299 298 297
218 220 220 220 220 216 214 214 216 216 217 219 221 224 227 230 233 236 237 238 238 240 241 241 242 246 252 256 257 256 253 246 239 236 236 237 237 239 242 244 246 249 251 253 256 258 260 262 265 267 269 272 274 275 277 279 281 284 287 289 291 292 293 295 297 298 299 299 299 299 300 300 301 301 302 302 303 303 303 303 303 302 302 302 301 301 300
217 219 220 222 222 220 216 216 217 217 218 221 223 224 227 231 234 236 237 238 239 240 240 241 242 246 250 252 249 242 234 226 224 225 229 234 238 241 245 247 249 252 254 256 258 260 262 265 266 268 270 271 274 275 278 280 283 285 288 290 292 293 294 296 297 297 298 299 299 300 301 301 302 302 303 304 304 304 304 304 304 304 304 303 303 303 303
219 220 222 223 223 221 219 220 221 221 222 224 226 228 231 233 235 237 237 236 236 236 237 240 242 245 248 245 237 229 222 219 221 226 230 235 239 242 246 248 250 252 254 256 258 260 264 266 268 268 269 271 274 277 279 282 284 286 288 290 292 294 295 296 297 297 298 299 299 300 301 302 303 303 304 305 305 306 306 306 306 306 307 307 307 307 307
218 220 223 224 223 221 221 223 224 225 226 228 231 233 233 233 235 237 237 235 234 235 237 239 240 241 240 233 226 223 224 225 227 229 232 236 240 243 247 249 251 253 255 257 260 263 266 268 269 269 270 272 276 278 281 283 285 287 289 290 292 294 295 295 296 296 297 298 299 301 302 303 304 305 306 306 307 308 308 309 310 310 311 312 312 312 312
217 218 220 220 219 218 221 224 226 228 231 233 234 233 231 232 234 237 239 238 236 235 235 234 233 233 232 227 224 226 228 228 228 230 234 240 244 246 248 250 252 255 258 260 263 265 267 268 269 271 273 275 277 279 281 283 285 287 289 291 292 293 294 294 295 296 298 300 301 303 304 305 306 306 307 308 309 310 311 313 314 315 316 316 316 317 318
218 219 218 217 214 215 219 223 225 227 230 230 230 229 228 229 232 235 237 236 232 230 229 227 226 226 226 225 226 228 230 231 233 236 240 245 247 249 250 253 255 258 260 262 265 267 268 269 270 272 275 277 279 280 282 284 286 288 289 290 291 291 292 293 296 298 300 302 303 304 305 306 307 308 310 311 312 314 316 317 318 319 320 320 320 321 323
215 216 215 215 215 217 218 219 220 222 223 222 222 223 224 226 227 228 228 227 226 227 226 226 225 224 224 225 227 230 234 236 237 240 245 248 250 251 253 255 258 260 263 265 267 268 268 269 271 274 276 278 279 281 283 285 286 287 288 288 289 291 293 296 298 300 301 303 304 305 306 307 309 311 313 314 316 318 320 322 323 323 323 324 324 326 328
217 216 215 213 214 214 214 215 219 223 224 221 220 220 220 222 223 223 220 220 221 224 226 227 228 229 231 235 236 236 236 236 238 244 248 250 252 254 256 258 261 263 265 266 267 268 269 270 272 274 276 277 279 280 282 283 283 283 284 286 290 293 296 298 299 300 302 303 304 306 308 310 312 314 316 318 321 323 325 326 326 327 327 328 329 330 331
219 217 214 214 216 217 218 221 224 226 226 224 222 220 219 219 220 220 220 219 220 222 224 227 231 235 240 242 240 237 237 239 243 247 249 250 253 256 258 260 262 263 265 266 267 268 268 270 271 273 274 276 277 278 279 279 279 281 284 288 292 294 296 298 299 300 302 304 305 307 309 312 315 317 320 323 325 327 329 329 329 330 331 331 332 333 334
221 218 215 214 215 218 221 222 222 224 224 223 221 221 221 220 219 218 219 220 221 224 227 230 234 238 240 238 236 236 239 243 246 247 248 250 253 255 258 259 261 262 263 263 264 265 266 267 269 271 272 273 274 274 274 275 278 283 287 290 293 295 296 298 300 301 303 304 306 308 312 315 318 321 324 327 329 330 331 331 332 333 334 335 335 336 336
221 220 216 213 212 214 215 214 215 218 220 220 220 219 220 221 221 221 222 222 223 225 228 229 231 234 235 235 236 239 242 244 245 247 249 251 253 254 256 257 257 258 258 259 261 262 263 265 268 269 270 269 269 270 273 277 282 286 289 292 294 296 297 299 301 302 304 305 308 311 315 319 322 325 328 329 330 331 333 334 334 336 338 338 339 339 339
213 212 209 208 210 214 214 213 212 212 213 215 217 217 217 219 221 222 223 224 225 227 229 230 232 233 235 237 239 240 241 243 245 247 249 249 250 250 251 251 251 253 254 257 259 260 262 264 265 265 264 264 266 271 276 282 287 290 292 294 296 298 300 301 303 304 305 307 309 312 316 321 325 328 330 331 332 334 335 336 337 339 340 340 341 342 343
209 209 208 209 212 214 213 213 213 211 210 211 212 214 215 217 218 219 220 222 224 227 229 231 232 233 234 236 238 239 241 243 244 245 244 244 244 244 244 245 247 250 252 254 256 257 259 259 258 258 259 263 269 276 281 286 289 291 293 296 299 301 303 304 306 307 308 308 310 314 318 323 327 329 330 333 335 336 338 339 339 340 341 342 344 346 346
206 208 210 211 211 212 213 213 214 214 214 214 213 213 215 215 216 217 218 220 222 224 227 229 230 232 233 235 237 238 239 240 239 238 238 239 239 239 241 244 246 248 249 250 252 252 251 250 250 253 260 267 275 280 284 287 290 293 296 299 302 304 306 307 308 308 309 311 313 316 320 324 328 330 332 335 337 338 340 341 341 342 343 344 346 348 349
212 212 213 215 217 219 221 221 219 218 218 217 216 216 216 215 216 217 218 221 224 226 229 231 232 233 234 234 235 236 236 234 233 233 234 235 237 239 241 242 243 244 245 245 245 243 242 242 247 255 263 271 278 282 286 289 293 297 301 303 305 307 308 308 309 310 311 312 314 318 322 325 329 332 334 336 337 339 341 341 342 343 344 346 348 350 350
222 221 221 222 223 226 228 228 226 224 222 220 220 220 220 220 221 222 224 226 228 230 231 231 231 230 230 230 231 231 229 228 228 230 232 233 234 236 238 238 239 239 239 237 235 233 235 241 251 260 268 275 281 285 290 294 298 302 304 306 308 309 310 310 310 310 311 312 315 319 323 327 330 333 335 337 338 340 341 342 342 344 346 347 349 351 351
228 228 228 229 229 230 231 231 230 228 227 225 225 225 225 225 226 227 228 229 230 230 229 227 227 229 229 228 227 225 224 225 227 229 230 230 231 232 232 233 233 232 229 227 226 228 236 245 255 264 272 278 284 290 295 300 303 306 308 310 312 312 312 312 312 311 311 314 318 323 326 329 332 334 336 338 340 341 341 342 344 346 347 347 349 351 352
232 232 233 233 234 234 233 232 231 230 229 229 229 229 229 230 230 230 229 228 228 227 226 226 227 228 226 224 222 222 223 225 226 225 225 226 227 228 228 227 225 222 219 219 223 229 239 249 258 267 275 282 288 295 300 304 308 311 313 315 315 315 315 314 314 314 315 318 323 327 330 332 333 335 338 340 341 342 343 344 346 347 347 346 348 351 353
236 235 234 234 234 234 234 233 231 230 230 230 231 232 232 231 230 227 225 222 220 220 222 224 225 224 222 220 219 219 220 221 221 220 220 220 221 222 221 219 216 214 214 217 224 232 242 252 261 270 278 286 294 300 305 310 314 317 319 319 319 319 318 318 318 318 319 322 326 330 332 333 334 336 339 341 342 344 345 346 347 347 346 346 348 352 353
238 237 236 236 235 235 234 233 232 232 232 232 232 232 231 229 226 223 221 219 218 219 220 220 220 219 218 219 218 215 214 214 215 216 216 217 217 217 214 211 209 209 212 217 225 234 244 253 264 274 284 293 301 308 313 318 321 322 323 324 324 325 324 322 322 323 324 325 328 331 334 336 336 337 340 343 345 346 347 347 346 346 346 346 348 351 354
238 238 237 237 237 236 236 235 235 235 235 234 233 231 229 227 225 223 221 220 220 219 218 217 215 214 213 213 214 213 212 213 213 213 213 214 213 211 208 206 205 207 212 218 226 235 245 256 267 279 291 301 309 317 322 325 328 329 329 328 329 330 329 327 327 327 327 328 331 333 336 338 338 338 340 343 346 347 347 346 345 345 346 347 348 351 353
239 238 238 237 237 237 237 237 237 237 236 235 233 229 225 222 220 218 218 218 217 215 213 212 212 210 208 208 210 211 211 212 211 211 211 211 209 207 205 205 205 208 213 220 227 236 247 259 271 286 298 308 317 324 328 331 333 334 333 333 333 332 330 329 331 331 330 330 332 334 336 338 339 339 340 343 345 346 347 346 345 345 346 347 348 350 353
243 240 237 235 234 233 233 234 233 233 232 230 226 221 218 217 216 216 214 213 212 211 210 209 208 205 204 204 205 206 207 209 209 210 209 207 205 205 204 203 205 209 215 222 228 236 247 261 276 292 305 315 324 329 332 334 336 337 338 338 335 333 332 333 334 334 332 331 333 335 337 338 339 339 340 341 344 346 347 346 346 346 347 348 348 349 351
251 245 239 235 232 231 229 227 226 225 224 221 217 214 213 214 215 215 212 210 209 210 209 206 203 201 201 200 199 201 204 206 207 207 207 205 205 205 204 203 206 211 216 222 229 236 248 263 280 296 310 319 326 331 334 337 338 340 343 341 336 335 336 337 337 336 334 333 336 338 339 339 339 339 340 341 343 345 346 346 346 347 348 348 349 349 350
250 245 239 233 231 231 229 226 221 216 212 209 208 208 209 210 211 210 208 208 208 207 204 200 198 197 196 195 196 199 203 205 205 205 205 205 205 205 204 204 207 212 218 224 229 237 249 265 281 298 311 319 325 331 335 337 340 344 345 342 339 340 341 339 339 339 338 338 340 342 341 340 339 339 341 343 344 344 345 345 347 349 349 349 349 349 349
237 234 230 224 220 220 222 221 218 212 206 203 202 202 203 204 205 205 205 205 203 200 196 194 193 192 193 194 198 202 205 206 206 205 205 206 206 206 205 207 210 215 220 225 230 239 250 264 279 294 307 316 323 329 333 336 341 346 345 342 343 346 345 342 343 343 342 342 344 344 342 340 338 339 342 343 343 343 344 345 347 349 350 349 349 350 350
221 214 210 208 206 205 208 211 210 208 204 201 197 196 197 198 199 200 200 199 195 192 190 189 189 191 194 198 202 205 206 206 206 206 207 208 209 209 208 209 212 218 223 227 233 241 250 262 276 287 298 309 318 325 328 333 340 344 344 343 345 347 345 344 345 345 344 344 345 344 342 340 339 340 342 343 342 342 344 346 347 349 349 350 350 351 350
195 184 185 189 189 190 195 199 199 200 200 196 191 190 192 195 195 195 196 193 189 187 188 189 191 194 198 203 206 207 207 207 208 209 210 211 212 212 211 212 215 221 226 232 238 245 251 261 272 282 291 300 311 317 321 327 334 339 338 338 341 343 342 342 342 342 342 343 343 343 343 341 341 342 343 342 341 342 344 345 347 348 349 350 351 351 350
161 152 155 168 174 175 179 183 187 191 195 192 187 186 190 192 192 191 190 188 187 187 191 194 197 200 204 207 207 206 207 209 211 213 215 216 216 215 214 214 218 224 230 236 241 246 251 259 269 277 286 295 304 309 312 318 326 330 329 330 332 334 335 336 337 338 339 339 339 341 342 342 341 342 342 342 341 343 344 345 346 347 348 350 350 351 351
141 133 132 145 159 166 170 175 181 186 190 189 186 185 187 189 190 188 186 185 186 190 194 199 203 206 208 208 207 207 209 212 215 218 220 221 221 220 218 217 221 226 232 239 244 247 251 257 264 271 280 290 298 302 304 309 315 319 320 320 323 325 328 330 332 333 335 336 336 337 340 341 342 342 341 341 342 343 344 344 344 345 347 348 349 350 352
118 118 122 138 155 161 164 168 173 177 181 184 184 182 181 182 185 185 183 184 188 194 199 203 207 209 208 207 207 210 213 217 220 223 224 225 225 223 222 221 224 228 234 240 245 249 253 258 263 268 277 286 292 295 298 302 307 310 312 313 316 319 321 324 326 328 330 332 332 333 336 339 341 340 340 340 341 342 343 343 343 344 345 346 347 349 352
125 128 136 152 164 166 166 166 167 169 173 175 173 172 175 180 184 184 185 188 193 198 203 206 208 208 208 208 210 214 218 222 225 227 227 227 227 226 226 225 227 230 235 240 245 250 255 259 264 268 275 282 287 290 294 298 300 303 306 308 311 315 317 319 321 324 325 327 329 330 332 335 338 338 338 339 339 340 341 341 341 342 343 344 346 347 349
158 153 158 166 173 176 176 173 172 173 175 173 169 171 179 186 189 190 192 196 200 205 207 209 209 209 209 211 214 218 223 227 228 230 230 230 230 230 230 230 230 232 235 240 244 250 255 259 263 268 273 279 282 285 289 293 296 299 303 306 309 312 314 316 318 319 320 323 325 327 328 331 333 335 335 336 337 338 338 339 340 340 341 342 344 345 346
169 167 169 172 174 178 180 179 178 180 183 182 180 183 189 193 195 197 200 204 207 209 211 212 211 212 213 216 219 223 227 230 232 233 234 235 234 232 232 233 233 234 236 240 244 249 253 257 261 266 272 276 279 282 286 290 294 297 300 303 306 309 311 313 315 316 317 319 321 323 325 327 329 331 332 333 334 335 336 337 338 339 339 340 341 343 344
171 171 173 175 177 179 180 181 182 187 192 193 192 194 197 200 200 202 205 207 210 212 215 216 216 217 219 222 225 228 231 234 236 238 239 239 236 234 234 235 236 237 239 242 245 249 253 256 260 265 270 275 278 282 285 288 292 295 298 300 303 306 308 310 312 313 313 315 318 320 322 324 325 327 328 329 330 332 334 335 336 336 337 337 339 341 343
191 186 185 185 184 181 181 183 190 197 202 203 202 203 206 208 208 209 210 212 215 217 220 222 224 225 227 230 233 235 237 238 239 239 239 238 236 234 234 236 239 241 242 244 247 250 253 256 260 265 270 274 277 280 283 286 289 292 295 298 301 303 305 307 309 310 310 312 315 317 319 321 322 323 324 326 327 329 331 333 334 334 334 335 336 338 340
212 207 203 201 198 194 193 195 198 201 205 207 207 208 211 214 215 216 217 219 221 224 226 228 230 232 234 236 237 239 239 238 237 236 235 234 234 234 235 237 240 242 244 246 248 251 254 258 262 266 270 273 276 278 281 284 287 290 293 296 299 301 303 305 306 307 308 309 312 314 316 318 319 320 321 323 325 327 329 331 331 331 331 332 334 335 337
223 221 216 211 208 209 209 209 209 209 210 210 210 213 216 218 220 220 221 223 225 227 229 231 232 234 236 238 238 237 237 237 235 234 234 234 234 234 236 238 242 245 247 248 250 252 255 259 263 266 270 272 275 277 280 283 286 288 291 294 296 298 300 302 303 304 306 307 309 312 313 315 317 318 319 320 323 324 326 328 329 329 330 330 331 332 333
233 231 226 219 213 213 215 215 214 217 219 217 215 216 219 223 224 225 225 226 227 228 229 230 231 234 236 238 239 238 238 237 235 233 234 234 235 236 238 241 244 246 248 249 251 253 256 259 263 266 269 272 274 277 279 281 283 286 288 291 293 295 297 299 300 302 304 306 308 310 312 314 315 316 317 319 320 322 323 324 326 327 327 327 327 327 329
237 235 233 226 218 216 218 219 219 222 227 227 223 220 220 223 224 224 226 229 232 232 232 231 233 235 238 240 240 241 241 241 240 238 237 236 236 237 241 244 246 248 249 251 253 255 258 260 264 267 269 271 274 275 277 280 282 284 287 289 291 293 295 297 298 300 302 304 306 308 310 312 313 313 314 316 318 319 320 321 323 323 324 323 323 324 325
237 235 235 232 226 221 221 222 222 223 228 233 233 230 228 229 228 226 225 227 231 235 237 237 237 238 240 242 242 242 241 241 241 241 241 240 240 242 245 248 250 251 253 255 257 259 261 263 265 267 269 271 273 275 277 279 282 284 286 288 290 292 294 295 297 298 300 303 304 306 308 309 310 311 312 313 315 316 317 318 319 320 320 320 320 321 322
239 238 237 238 234 228 224 223 222 222 224 228 229 230 232 234 235 234 231 230 230 232 236 238 240 241 242 243 245 246 246 243 240 239 239 240 241 243 245 247 249 251 254 256 258 261 263 265 267 269 270 272 273 275 278 280 282 284 286 288 289 291 293 294 295 297 299 301 303 304 306 307 307 308 310 311 312 313 314 315 316 316 317 317 318 319 319
Height
5679 5681 5684 5688 5693 5696 5697 5700 5704 5708 5711 5712 5714 5716 5718 5720 5721 5723 5726 5727 5729 5732 5734 5736 5738 5739 5740 5741 5742 5743 5744 5745 5746 5747 5748 5748 5749 5750 5750 5751 5752 5752 5753 5754 5754 5755 5756 5757 5758 5758 5759 5759 5759 5760 5760 5759 5758 5758 5757 5756 5756 5754 5753 5752 5751 5750 5748 5747 5746 5745 5743 5741 5739 5738 5737 5735 5734 5733 5731 5730 5728 5727 5725 5724 5723 5721 5720
5677 5679 5682 5685 5689 5693 5695 5697 5700 5704 5707 5709 5711 5713 5714 5717 5719 5722 5724 5725 5727 5728 5730 5733 5735 5735 5736 5737 5739 5740 5741 5742 5743 5744 5745 5745 5746 5747 5747 5747 5748 5749 5749 5750 5751 5752 5753 5753 5754 5755 5755 5756 5756 5756 5756 5755 5755 5754 5753 5753 5752 5750 5749 5748 5747 5746 5744 5742 5742 5740 5738 5737 5735 5733 5732 5730 5729 5727 5726 5725 5723 5721 5720 5718 5717 5715 5714
5674 5677 5680 5683 5686 5690 5693 5695 5697 5701 5703 5706 5708 5709 5711 5714 5716 5718 5720 5721 5723 5724 5727 5729 5730 5731 5733 5734 5735 5737 5738 5740 5741 5741 5741 5742 5743 5743 5744 5744 5745 5745 5746 5747 5748 5749 5749 5750 5751 5751 5752 5752 5752 5752 5752 5752 5752 5751 5750 5748 5747 5746 5745 5744 5743 5742 5740 5738 5737 5736 5734 5732 5730 5729 5727 5726 5724 5722 5721 5719 5718 5716 5714 5712 5711 5709 5707
5671 5675 5678 5680 5684 5687 5690 5693 5695 5698 5700 5702 5704 5706 5709 5711 5714 5715 5716 5718 5720 5722 5723 5725 5727 5728 5729 5730 5732 5734 5735 5737 5738 5738 5738 5739 5739 5740 5740 5741 5741 5742 5743 5744 5745 5746 5746 5747 5747 5748 5748 5749 5749 5749 5749 5749 5748 5747 5745 5744 5743 5742 5741 5740 5739 5737 5735 5734 5733 5731 5729 5727 5726 5724 5723 5721 5719 5717 5716 5714 5712 5710 5709 5707 5705 5703 5701
5669 5672 5675 5678 5682 5685 5688 5690 5693 5695 5697 5699 5702 5704 5706 5708 5710 5711 5713 5715 5718 5719 5720 5722 5724 5725 5726 5727 5729 5730 5732 5734 5735 5735 5735 5735 5736 5736 5737 5738 5739 5739 5740 5741 5742 5743 5743 5744 5744 5745 5745 5746 5746 5746 5746 5745 5744 5743 5741 5740 5739 5739 5738 5736 5734 5733 5731 5730 5728 5726 5724 5723 5721 5719 5718 5716 5714 5713 5711 5709 5707 5705 5703 5701 5699 5697 5695
5668 5670 5673 5677 5680 5682 5685 5688 5690 5692 5695 5697 5700 5701 5703 5705 5707 5708 5710 5712 5714 5716 5717 5719 5721 5722 5724 5725 5726 5727 5729 5731 5731 5732 5732 5732 5733 5733 5735 5735 5736 5737 5737 5738 5739 5740 5740 5741 5741 5742 5742 5742 5742 5742 5741 5741 5740 5739 5738 5737 5736 5735 5733 5732 5730 5728 5727 5725 5724 5722 5720 5718 5716 5714 5713 5711 5709 5708 5706 5704 5701 5699 5697 5695 5693 5691 5689
5666 5668 5671 5674 5677 5679 5682 5685 5687 5689 5692 5694 5697 5699 5700 5702 5704 5706 5707 5710 5711 5713 5715 5717 5718 5719 5721 5722 5724 5725 5726 5727 5728 5729 5729 5729 5730 5731 5732 5733 5733 5734 5735 5735 5736 5737 5737 5738 5738 5738 5738 5738 5738 5737 5737 5737 5736 5735 5734 5733 5732 5731 5729 5727 5725 5724 5723 5721 5719 5717 5715 5713 5711 5710 5708 5706 5704 5702 5700 5698 5696 5694 5692 5689 5687 5685 5682
5664 5666 5668 5671 5673 5676 5678 5681 5684 5687 5689 5691 5693 5695 5697 5699 5701 5703 5705 5707 5708 5710 5712 5714 5715 5717 5718 5720 5721 5723 5724 5724 5725 5726 5726 5727 5727 5728 5729 5730 5731 5731 5732 5733 5733 5734 5734 5734 5735 5734 5734 5734 5734 5734 5733 5733 5733 5732 5730 5729 5728 5727 5725 5723 5721 5719 5718 5717 5715 5713 5711 5708 5706 5705 5703 5701 5699 5697 5695 5692 5690 5688 5685 5683 5681 5678 5675
5661 5662 5665 5668 5671 5673 5675 5679 5682 5684 5686 5688 5690 5692 5694 5696 5698 5701 5702 5704 5705 5707 5709 5711 5713 5715 5716 5718 5719 5720 5721 5721 5722 5723 5724 5724 5724 5725 5726 5727 5728 5729 5729 5730 5730 5731 5731 5731 5731 5731 5730 5730 5731 5731 5730 5730 5729 5728 5726 5725 5724 5723 5721 5719 5717 5715 5714 5712 5711 5708 5706 5704 5702 5700 5698 5696 5694 5692 5689 5687 5684 5681 5679 5676 5674 5671 5668
5658 5660 5663 5665 5667 5670 5674 5677 5679 5681 5683 5686 5688 5690 5692 5694 5696 5698 5700 5701 5702 5704 5706 5708 5710 5712 5714 5715 5716 5717 5717 5718 5718 5719 5720 5721 5722 5723 5723 5724 5725 5726 5726 5726 5727 5727 5728 5728 5728 5727 5727 5727 5728 5727 5726 5726 5725 5724 5722 5721 5720 5718 5717 5715 5713 5711 5710 5708 5706 5704 5702 5700 5698 5695 5693 5691 5689 5686 5684 5681 5678 5675 5672 5669 5666 5664 5661
5656 5659 5661 5663 5665 5669 5673 5675 5677 5679 5681 5683 5685 5687 5689 5691 5693 5695 5697 5698 5699 5701 5704 5706 5708 5710 5711 5712 5713 5713 5714 5714 5715 5716 5717 5718 5719 5720 5721 5722 5722 5722 5723 5723 5724 5725 5725 5725 5725 5725 5724 5724 5724 5723 5723 5722 5721 5720 5718 5717 5716 5714 5713 5711 5709 5707 5706 5704 5702 5700 5698 5696 5693 5691 5689 5686 5684 5681 5679 5676 5673 5670 5666 5663 5660 5657 5654
5654 5657 5659 5661 5663 5667 5671 5673 5674 5676 5679 5681 5682 5683 5686 5689 5691 5692 5694 5696 5697 5699 5702 5703 5705 5707 5708 5708 5708 5709 5710 5711 5712 5713 5714 5715 5716 5717 5718 5718 5719 5720 5720 5720 5721 5721 5721 5721 5721 5721 5721 5721 5720 5720 5719 5718 5717 5716 5714 5713 5712 5710 5709 5707 5705 5704 5702 5700 5698 5696 5694 5692 5689 5687 5684 5682 5679 5676 5674 5671 5668 5664 5661 5657 5654 5651 5647
5653 5655 5657 5659 5661 5664 5668 5670 5671 5673 5675 5677 5678 5681 5685 5687 5688 5689 5691 5693 5695 5697 5698 5700 5701 5703 5703 5704 5704 5706 5707 5709 5710 5711 5712 5713 5714 5715 5715 5716 5716 5717 5717 5717 5718 5718 5718 5718 5718 5718 5718 5717 5717 5716 5715 5714 5713 5712 5711 5709 5708 5707 5705 5703 5702 5700 5698 5696 5694 5692 5690 5688 5685 5683 5680 5678 5675 5672 5669 5666 5662 5659 5655 5652 5648 5644 5641
5651 5653 5655 5657 5659 5662 5665 5667 5668 5670 5672 5674 5676 5680 5683 5685 5685 5686 5688 5690 5691 5693 5695 5697 5698 5699 5699 5701 5702 5704 5706 5707 5707 5708 5709 5711 5712 5712 5713 5713 5713 5714 5714 5714 5714 5715 5715 5715 5715 5714 5714 5713 5713 5712 5711 5710 5709 5708 5707 5706 5704 5703 5701 5700 5698 5696 5695 5693 5691 5689 5686 5684 5681 5679 5676 5673 5671 5667 5664 5661 5657 5654 5650 5646 5642 5638 5634
5648 5650 5652 5654 5658 5661 5663 5664 5666 5668 5670 5673 5676 5678 5680 5681 5682 5683 5685 5686 5688 5690 5692 5693 5695 5695 5697 5698 5700 5702 5703 5704 5705 5706 5707 5708 5709 5709 5710 5710 5710 5711 5711 5711 5711 5711 5711 5711 5711 5710 5710 5710 5709 5708 5708 5707 5706 5704 5703 5702 5701 5699 5698 5696 5695 5693 5691 5689 5687 5685 5682 5680 5677 5675 5672 5669 5666 5663 5660 5656 5653 5649 5645 5641 5637 5633 5628
5646 5648 5651 5654 5657 5659 5661 5662 5664 5666 5668 5670 5672 5674 5675 5677 5679 5680 5682 5683 5685 5687 5689 5690 5691 5693 5694 5696 5698 5699 5700 5701 5702 5704 5705 5705 5706 5706 5707 5707 5707 5708 5708 5708 5708 5708 5708 5707 5707 5707 5707 5706 5706 5705 5704 5703 5702 5701 5700 5699 5697 5696 5695 5693 5691 5690 5688 5686 5683 5681 5679 5676 5673 5671 5668 5665 5662 5659 5656 5652 5649 5645 5641 5637 5633 5629 5624
5645 5647 5650 5652 5654 5656 5658 5660 5661 5663 5665 5666 5668 5670 5672 5674 5676 5677 5679 5681 5682 5684 5686 5687 5689 5690 5692 5693 5695 5696 5697 5698 5700 5701 5702 5702 5702 5703 5704 5704 5704 5704 5704 5704 5704 5704 5704 5704 5704 5703 5703 5703 5702 5701 5701 5700 5699 5698 5697 5696 5694 5693 5692 5690 5688 5686 5684 5682 5680 5678 5675 5672 5670 5667 5664 5661 5658 5655 5652 5648 5644 5640 5636 5633 5628 5624 5619
5643 5645 5647 5649 5651 5653 5655 5657 5659 5660 5662 5663 5665 5667 5669 5671 5673 5674 5676 5678 5680 5681 5683 5685 5687 5688 5689 5690 5692 5693 5694 5696 5697 5698 5698 5699 5699 5700 5700 5700 5701 5701 5701 5701 5701 5701 5701 5700 5700 5700 5700 5699 5699 5699 5698 5697 5696 5695 5694 5693 5692 5690 5688 5687 5685 5683 5681 5679 5677 5674 5672 5669 5666 5664 5661 5657 5654 5651 5648 5644 5640 5637 5633 5629 5624 5619 5615
5641 5643 5645 5646 5648 5650 5652 5654 5656 5658 5659 5661 5662 5664 5666 5668 5670 5672 5673 5675 5677 5678 5680 5682 5684 5685 5686 5687 5689 5690 5692 5693 5694 5694 5695 5696 5696 5696 5696 5697 5697 5697 5697 5698 5697 5697 5697 5697 5697 5697 5697 5697 5696 5696 5695 5695 5694 5693 5692 5690 5689 5687 5686 5684 5682 5680 5678 5676 5674 5671 5669 5666 5663 5660 5657 5654 5650 5648 5644 5640 5637 5633 5629 5625 5621 5616 5611
5639 5641 5643 5645 5646 5648 5650 5652 5654 5655 5657 5658 5660 5661 5663 5665 5667 5669 5670 5672 5674 5676 5677 5679 5680 5682 5683 5684 5686 5688 5689 5690 5690 5691 5692 5692 5692 5693 5693 5693 5694 5694 5694 5694 5694 5694 5694 5694 5694 5694 5694 5694 5694 5693 5693 5692 5691 5690 5689 5688 5686 5685 5683 5681 5679 5677 5675 5673 5671 5669 5666 5663 5660 5657 5654 5651 5647 5644 5641 5637 5633 5630 5625 5621 5617 5612 5608
5637 5639 5641 5643 5645 5646 5648 5650 5651 5653 5654 5656 5657 5659 5661 5663 5664 5666 5667 5669 5672 5673 5674 5676 5677 5679 5680 5682 5683 5684 5685 5686 5687 5687 5688 5689 5689 5689 5690 5690 5691 5691 5691 5691 5692 5692 5692 5692 5692 5692 5692 5691 5691 5691 5690 5689 5689 5688 5686 5685 5684 5682 5681 5679 5677 5674 5672 5670 5668 5666 5663 5660 5657 5654 5651 5648 5644 5641 5638 5634 5630 5626 5622 5618 5613 5608 5603
5636 5638 5639 5641 5643 5644 5646 5648 5649 5650 5652 5653 5655 5657 5658 5660 5662 5664 5666 5668 5669 5670 5672 5673 5674 5676 5677 5679 5680 5681 5682 5682 5683 5684 5685 5685 5686 5686 5687 5687 5688 5688 5689 5689 5689 5689 5689 5689 5689 5689 5689 5689 5689 5688 5688 5687 5686 5685 5684 5682 5681 5679 5678 5676 5674 5671 5669 5667 5665 5663 5660 5658 5655 5651 5648 5645 5642 5638 5635 5631 5627 5623 5619 5615 5610 5605 5599
5634 5635 5637 5639 5641 5643 5644 5645 5647 5648 5650 5651 5653 5654 5656 5658 5660 5662 5663 5665 5666 5667 5668 5670 5672 5673 5675 5676 5676 5677 5678 5679 5680 5681 5681 5682 5683 5683 5684 5685 5685 5686 5686 5686 5686 5687 5687 5687 5687 5687 5687 5687 5686 5686 5685 5685 5684 5682 5681 5680 5678 5676 5674 5672 5670 5668 5666 5664 5662 5660 5658 5655 5653 5649 5646 5643 5639 5635 5632 5628 5624 5620 5616 5612 5607 5602 5597
5633 5634 5636 5638 5639 5641 5642 5643 5645 5646 5647 5649 5651 5652 5654 5655 5657 5659 5660 5661 5662 5664 5665 5667 5669 5670 5671 5672 5672 5673 5675 5676 5677 5678 5678 5679 5680 5681 5681 5682 5682 5683 5683 5684 5684 5684 5685 5685 5685 5685 5685 5685 5684 5684 5683 5683 5681 5680 5679 5677 5675 5673 5672 5670 5667 5665 5663 5661 5659 5657 5655 5653 5650 5647 5643 5640 5636 5633 5629 5625 5621 5617 5613 5609 5605 5600 5595
5632 5633 5634 5635 5637 5638 5640 5641 5643 5644 5646 5647 5649 5650 5651 5653 5654 5656 5657 5658 5660 5661 5663 5665 5666 5667 5667 5668 5669 5670 5672 5673 5674 5675 5676 5677 5677 5678 5679 5679 5680 5681 5681 5682 5682 5682 5683 5683 5683 5683 5683 5683 5682 5682 5681 5680 5679 5677 5676 5674 5673 5671 5669 5667 5665 5663 5661 5659 5657 5655 5653 5650 5648 5645 5641 5638 5635 5631 5627 5623 5619 5615 5611 5607 5603 5598 5593
5629 5630 5631 5633 5634 5635 5637 5639 5640 5642 5643 5645 5646 5647 5648 5650 5651 5652 5654 5655 5657 5659 5660 5662 5662 5663 5664 5665 5666 5668 5669 5670 5671 5672 5673 5674 5674 5675 5676 5677 5678 5678 5679 5679 5680 5680 5681 5681 5681 5681 5681 5681 5680 5680 5679 5678 5677 5675 5673 5672 5670 5668 5666 5664 5662 5661 5659 5657 5655 5653 5651 5648 5646 5643 5640 5637 5633 5629 5625 5621 5617 5613 5609 5604 5601 5596 5592
5627 5628 5629 5630 5632 5633 5634 5636 5637 5639 5640 5641 5643 5644 5645 5646 5648 5649 5651 5653 5654 5656 5657 5658 5658 5659 5661 5662 5664 5665 5666 5667 5668 5669 5670 5671 5672 5673 5674 5675 5675 5676 5677 5677 5678 5679 5679 5680 5680 5680 5679 5679 5678 5677 5676 5675 5674 5673 5671 5669 5668 5666 5664 5662 5660 5658 5657 5655 5653 5651 5649 5646 5644 5641 5638 5635 5631 5628 5624 5620 5615 5611 5606 5602 5599 5595 5590
5624 5626 5627 5628 5629 5630 5631 5632 5634 5635 5636 5638 5639 5640 5642 5643 5645 5647 5649 5650 5651 5652 5653 5654 5655 5656 5658 5659 5661 5662 5663 5664 5665 5666 5668 5669 5670 5671 5672 5672 5673 5674 5675 5676 5676 5677 5678 5678 5678 5678 5678 5677 5676 5675 5674 5673 5672 5670 5669 5667 5665 5663 5662 5660 5658 5656 5654 5653 5651 5649 5647 5644 5642 5639 5636 5633 5630 5626 5622 5618 5613 5609 5605 5601 5597 5594 5589
5621 5623 5624 5625 5626 5627 5628 5629 5630 5631 5632 5634 5635 5637 5639 5641 5642 5644 5645 5647 5647 5648 5649 5651 5652 5654 5655 5656 5658 5659 5661 5662 5663 5664 5665 5666 5668 5669 5670 5670 5671 5672 5673 5674 5675 5676 5676 5676 5676 5676 5676 5675 5674 5673 5672 5671 5670 5668 5666 5665 5663 5661 5660 5658 5656 5654 5652 5651 5649 5647 5645 5642 5640 5637 5635 5632 5628 5624 5620 5616 5612 5608 5604 5600 5596 5592 5588
5618 5619 5620 5621 5622 5623 5624 5625 5626 5627 5629 5630 5632 5634 5636 5637 5639 5640 5642 5643 5643 5645 5646 5648 5649 5651 5652 5654 5655 5656 5658 5659 5660 5662 5663 5664 5666 5667 5668 5669 5670 5671 5672 5673 5674 5674 5674 5674 5674 5674 5674 5673 5672 5671 5670 5669 5667 5666 5664 5663 5661 5659 5657 5656 5654 5652 5650 5649 5647 5645 5643 5640 5637 5635 5632 5629 5625 5622 5618 5614 5610 5607 5603 5599 5595 5592 5588
5614 5615 5616 5617 5618 5619 5620 5621 5622 5624 5625 5627 5629 5631 5632 5634 5636 5637 5638 5639 5641 5642 5643 5645 5646 5648 5650 5651 5652 5654 5655 5657 5658 5660 5661 5663 5664 5665 5666 5667 5668 5669 5671 5671 5672 5672 5673 5673 5673 5672 5672 5671 5670 5669 5668 5667 5665 5664 5662 5660 5659 5657 5655 5654 5652 5650 5648 5647 5645 5643 5641 5638 5636 5633 5630 5627 5623 5620 5617 5613 5609 5606 5602 5597 5594 5590 5587
5611 5611 5612 5613 5614 5615 5617 5618 5619 5621 5622 5624 5626 5628 5629 5631 5632 5633 5635 5636 5638 5640 5641 5642 5644 5646 5647 5649 5650 5652 5653 5655 5656 5658 5660 5661 5662 5663 5665 5666 5667 5668 5669 5670 5670 5671 5671 5671 5671 5670 5670 5669 5668 5667 5666 5665 5663 5662 5660 5659 5657 5656 5654 5652 5650 5649 5647 5645 5643 5641 5639 5637 5634 5631 5628 5625 5622 5619 5616 5612 5608 5605 5601 5596 5592 5589 5585
5607 5608 5609 5610 5611 5612 5613 5614 5616 5617 5619 5621 5623 5625 5626 5627 5629 5630 5632 5634 5636 5637 5639 5640 5642 5644 5645 5647 5648 5650 5652 5653 5655 5657 5658 5659 5661 5662 5663 5664 5666 5667 5667 5668 5669 5669 5669 5669 5669 5668 5668 5667 5666 5665 5664 5663 5662 5660 5659 5657 5656 5654 5652 5650 5649 5647 5645 5644 5642 5640 5637 5635 5633 5630 5627 5624 5621 5618 5615 5611 5607 5603 5599 5595 5591 5588 5584
5604 5605 5605 5606 5607 5608 5609 5611 5612 5614 5616 5618 5620 5622 5623 5625 5626 5628 5630 5631 5633 5635 5637 5638 5640 5642 5643 5645 5647 5648 5650 5652 5654 5655 5656 5658 5659 5660 5662 5663 5664 5665 5666 5667 5667 5667 5667 5667 5667 5666 5666 5665 5664 5664 5663 5661 5660 5659 5657 5656 5654 5652 5651 5649 5647 5646 5644 5642 5640 5638 5636 5633 5631 5629 5626 5623 5620 5616 5613 5610 5606 5602 5598 5594 5590 5586 5583
5602 5602 5602 5603 5604 5605 5606 5608 5609 5611 5613 5615 5617 5619 5620 5622 5624 5626 5627 5629 5631 5633 5635 5636 5638 5640 5641 5643 5645 5647 5649 5651 5652 5653 5655 5656 5657 5659 5660 5662 5663 5664 5664 5665 5665 5666 5666 5665 5665 5664 5664 5663 5662 5662 5661 5660 5658 5657 5656 5654 5653 5651 5649 5648 5646 5644 5642 5640 5638 5636 5634 5632 5629 5627 5624 5621 5618 5615 5612 5608 5605 5601 5597 5593 5589 5585 5581
5600 5600 5600 5601 5601 5603 5604 5606 5607 5609 5610 5612 5614 5616 5618 5620 5622 5623 5625 5627 5629 5631 5632 5634 5636 5638 5640 5642 5643 5645 5647 5649 5650 5652 5653 5655 5656 5657 5659 5660 5661 5662 5662 5663 5663 5664 5664 5663 5663 5663 5662 5661 5661 5660 5659 5658 5657 5656 5654 5653 5651 5650 5648 5646 5645 5643 5641 5639 5637 5635 5632 5630 5628 5625 5622 5619 5617 5614 5611 5607 5603 5600 5596 5592 5588 5585 5581
5599 5599 5599 5599 5600 5601 5602 5604 5605 5607 5609 5610 5612 5614 5616 5618 5619 5621 5623 5625 5627 5629 5631 5633 5635 5637 5638 5640 5642 5644 5646 5647 5649 5650 5652 5653 5654 5656 5657 5658 5659 5660 5660 5661 5661 5662 5662 5661 5661 5660 5660 5659 5659 5658 5657 5656 5655 5654 5653 5651 5650 5648 5647 5645 5643 5641 5639 5637 5635 5633 5631 5628 5626 5623 5620 5618 5615 5612 5609 5606 5602 5599 5595 5591 5587 5584 5580
5599 5598 5598 5599 5599 5600 5601 5603 5604 5606 5608 5609 5611 5612 5614 5616 5618 5620 5622 5624 5626 5628 5630 5631 5633 5635 5637 5639 5641 5643 5644 5646 5647 5649 5650 5651 5653 5654 5655 5657 5657 5658 5658 5659 5659 5660 5660 5659 5659 5658 5658 5658 5657 5656 5655 5654 5653 5652 5651 5649 5648 5647 5645 5643 5642 5640 5638 5636 5634 5632 5630 5627 5624 5621 5618 5616 5613 5611 5608 5604 5601 5598 5594 5591 5587 5583 5580
5598 5598 5598 5599 5599 5600 5601 5602 5604 5606 5607 5609 5610 5612 5614 5615 5617 5619 5621 5623 5625 5626 5628 5630 5632 5634 5636 5638 5640 5641 5643 5645 5646 5647 5648 5650 5651 5652 5654 5655 5655 5656 5656 5657 5657 5658 5658 5657 5656 5656 5655 5655 5655 5654 5653 5652 5651 5650 5649 5647 5646 5645 5643 5642 5640 5638 5636 5634 5632 5630 5628 5625 5622 5619 5616 5614 5611 5609 5606 5602 5599 5596 5593 5590 5587 5583 5580
5598 5599 5599 5599 5599 5600 5601 5602 5604 5605 5607 5608 5610 5611 5613 5615 5617 5619 5620 5622 5624 5626 5627 5629 5631 5633 5635 5637 5638 5640 5641 5643 5644 5645 5646 5648 5649 5650 5652 5652 5653 5653 5654 5654 5655 5655 5655 5655 5655 5654 5653 5652 5652 5652 5651 5650 5649 5648 5647 5646 5644 5643 5641 5640 5638 5636 5634 5632 5629 5627 5626 5623 5620 5617 5614 5612 5609 5606 5604 5601 5598 5595 5592 5589 5586 5582 5579
5599 5599 5599 5600 5600 5601 5602 5603 5604 5605 5606 5608 5609 5611 5613 5614 5616 5618 5620 5621 5623 5625 5627 5628 5630 5632 5633 5635 5636 5638 5639 5641 5642 5643 5644 5646 5647 5648 5649 5650 5650 5651 5651 5652 5652 5652 5653 5653 5652 5651 5650 5650 5649 5649 5648 5647 5646 5646 5645 5644 5642 5641 5639 5638 5636 5634 5632 5630 5627 5625 5623 5621 5618 5615 5612 5610 5607 5604 5602 5599 5596 5593 5590 5587 5584 5581 5578
5599 5599 5600 5601 5601 5602 5602 5603 5604 5605 5606 5608 5609 5611 5613 5614 5616 5618 5619 5621 5622 5624 5625 5627 5628 5630 5631 5633 5634 5636 5637 5639 5640 5641 5642 5643 5644 5645 5646 5647 5648 5648 5649 5649 5649 5650 5650 5650 5649 5649 5648 5648 5647 5646 5646 5645 5644 5643 5642 5641 5640 5638 5637 5635 5633 5632 5630 5628 5625 5623 5620 5618 5616 5614 5611 5608 5605 5603 5600 5597 5594 5592 5589 5586 5583 5580 5577
5600 5600 5601 5601 5602 5603 5603 5604 5605 5606 5607 5608 5609 5611 5613 5614 5616 5617 5619 5620 5621 5623 5624 5625 5627 5628 5630 5631 5633 5634 5635 5636 5638 5639 5640 5641 5642 5643 5643 5644 5645 5645 5646 5646 5646 5647 5647 5647 5646 5646 5646 5645 5644 5643 5643 5642 5641 5640 5639 5638 5637 5635 5634 5632 5631 5629 5627 5625 5623 5621 5618 5616 5614 5611 5609 5606 5604 5601 5598 5596 5593 5590 5587 5584 5582 5579 5576
5600 5601 5601 5602 5602 5603 5604 5604 5605 5606 5607 5608 5609 5611 5612 5614 5615 5617 5618 5619 5620 5621 5622 5624 5625 5626 5628 5629 5631 5632 5633 5634 5635 5636 5637 5638 5639 5640 5641 5641 5642 5642 5643 5643 5643 5644 5644 5644 5643 5643 5642 5642 5641 5641 5640 5639 5638 5637 5636 5635 5634 5632 5631 5629 5628 5626 5624 5622 5620 5618 5616 5614 5611 5609 5607 5604 5602 5599 5596 5594 5591 5588 5586 5583 5580 5577 5574
5601 5601 5601 5602 5602 5603 5603 5604 5605 5606 5606 5607 5609 5610 5611 5612 5614 5615 5616 5617 5618 5619 5620 5622 5623 5624 5626 5627 5628 5629 5630 5631 5632 5633 5634 5635 5636 5637 5637 5638 5638 5639 5639 5640 5640 5641 5641 5641 5640 5640 5639 5639 5638 5637 5636 5635 5634 5633 5632 5631 5630 5629 5627 5626 5624 5623 5621 5619 5617 5615 5613 5611 5609 5606 5604 5602 5599 5597 5594 5591 5589 5586 5583 5581 5578 5575 5572
5600 5601 5601 5601 5602 5602 5603 5603 5604 5605 5606 5607 5608 5609 5610 5611 5612 5614 5615 5616 5617 5618 5619 5620 5621 5622 5623 5624 5625 5626 5627 5628 5629 5630 5631 5632 5633 5633 5634 5635 5635 5635 5636 5637 5637 5637 5637 5637 5637 5636 5636 5635 5634 5634 5633 5632 5631 5630 5629 5628 5626 5625 5624 5622 5621 5619 5617 5615 5614 5612 5610 5608 5606 5604 5601 5599 5596 5594 5591 5588 5586 5583 5580 5578 5575 5573 5570
5599 5600 5600 5601 5601 5602 5602 5603 5604 5605 5605 5606 5607 5608 5609 5610 5611 5612 5613 5614 5615 5615 5616 5617 5618 5619 5620 5621 5622 5623 5624 5625 5626 5626 5627 5628 5629 5630 5631 5632 5632 5632 5633 5633 5633 5633 5633 5633 5633 5633 5632 5632 5631 5630 5629 5628 5627 5626 5625 5623 5622 5621 5620 5618 5617 5615 5613 5612 5610 5608 5606 5604 5603 5601 5598 5596 5593 5590 5588 5585 5583 5580 5577 5575 5572 5570 5568
5598 5599 5599 5600 5600 5601 5602 5602 5603 5603 5604 5605 5605 5606 5607 5608 5609 5610 5611 5612 5613 5613 5614 5615 5616 5616 5617 5618 5619 5620 5621 5622 5622 5623 5623 5624 5625 5626 5627 5628 5628 5629 5629 5629 5629 5629 5629 5629 5629 5629 5628 5628 5627 5626 5625 5624 5623 5622 5621 5620 5618 5617 5616 5614 5612 5611 5609 5608 5606 5604 5602 5600 5599 5597 5595 5592 5590 5587 5584 5582 5579 5577 5574 5571 5569 5566 5565
5597 5597 5598 5599 5600 5600 5601 5601 5602 5602 5602 5603 5604 5605 5605 5606 5607 5608 5608 5609 5610 5611 5612 5613 5613 5614 5615 5615 5616 5617 5618 5619 5619 5620 5620 5621 5622 5623 5624 5624 5625 5625 5625 5625 5625 5625 5625 5625 5625 5624 5624 5623 5623 5622 5621 5620 5619 5618 5617 5616 5614 5613 5611 5610 5608 5606 5605 5603 5601 5600 5598 5596 5594 5592 5590 5588 5586 5583 5581 5579 5576 5573 5571 5568 5566 5563 5561
5596 5596 5597 5598 5598 5599 5599 5600 5600 5600 5601 5601 5602 5603 5603 5604 5605 5606 5606 5607 5608 5608 5609 5610 5611 5612 5612 5613 5613 5614 5615 5615 5616 5616 5617 5618 5619 5619 5620 5621 5621 5622 5622 5621 5621 5621 5621 5621 5620 5620 5620 5619 5618 5617 5616 5616 5615 5614 5613 5611 5610 5609 5607 5605 5604 5602 5600 5599 5597 5595 5593 5591 5589 5588 5586 5584 5582 5580 5577 5575 5572 5570 5568 5565 5563 5560 5558
5595 5595 5595 5596 5596 5597 5598 5598 5599 5599 5599 5599 5600 5601 5601 5602 5602 5603 5604 5605 5605 5606 5607 5607 5608 5609 5609 5610 5611 5611 5612 5612 5613 5613 5614 5615 5615 5616 5616 5617 5617 5617 5617 5617 5617 5617 5616 5616 5616 5615 5615 5614 5614 5613 5612 5611 5610 5609 5608 5607 5605 5604 5602 5601 5599 5597 5596 5594 5592 5590 5589 5587 5585 5583 5581 5580 5578 5575 5573 5571 5569 5566 5564 5562 5560 5557 5555
5593 5593 5593 5594 5594 5595 5596 5596 5597 5597 5598 5598 5598 5599 5599 5599 5600 5600 5601 5602 5603 5603 5604 5605 5605 5606 5606 5607 5608 5608 5609 5610 5610 5611 5611 5612 5612 5613 5613 5613 5613 5613 5613 5613 5612 5612 5612 5611 5611 5611 5610 5610 5609 5608 5607 5606 5605 5604 5603 5602 5601 5599 5598 5596 5594 5593 5591 5589 5588 5586 5584 5582 5581 5579 5577 5575 5573 5571 5569 5567 5564 5562 5560 5558 5556 5554 5551